THOR ABLESTAR DEB, 268

Orbit data source: Space-Track

THOR ABLESTAR DEB, 268 is space debris in LEO originally from a launch on Thu, 29 Jun 1961 UTC launched from the Air Force Eastern Test Range (AFETR). Debris objects in space refer to the collection of defunct objects orbiting the Earth. Examples of debris include non-operational satellites, rocket bodies, and fragments generated from explosions, collisions, or faulty payload assembly.

Loading next visibility...
Identifier
268, 1961-015CN
Orbit
LEO
Country
Flag of USUS
Related business
Manufacturer
Unknown
Mission
Spacecraft
Bus & Motor
Unknown
Mass
Unknown
Launch date (UTC)
1961-06-29 (65 years ago)
Launch vehicle
Unknown
Launch site
Air Force Eastern Test Range (AFETR)
Object type
Payload
Rocket body
Debris
Shape & HBR
Unknown shape, 0.1 m
Radar Cross Section
Medium (>0.1 m² and <1 m²)

Expand to show TLE details & history
Last TLE update: 14 hours ago

TLE from 14 hours ago
0 THOR ABLESTAR DEB
1 00268U 61015CN  26033.44905252  .00000044  00000-0  27411-3 0  9990
2 00268  67.9393  93.3671 0650464 244.7465 223.6044 12.51686520936398
Epoch: 2026-02-02T10:46Z
TLE epoch observation values (Epoch: 2026-02-02T10:46:38.137Z)
Latitude
64.40908°
Longitude
-78.31435°
Altitude
1,851.61 km
Speed
6.794 km/s
True Right ascension
14h 23m 57s
True Declination
64° 17' 34"
Sunlit
Object was in daylight at epoch
Visualization orbit readout
Latitude
Unknown
Longitude
Unknown
Altitude
Unknown
Speed
Unknown
Apparent Right ascension
Unknown
Apparent Declination
Unknown
Sunlit
N/A
Visualization observer readout
Local Sidereal Time
03:03:18
Azimuth
Unknown
Elevation
Unknown
Doppler factor
Unknown
Orbital elements
Apogee altitude
1,965.393 km
Perigee altitude
946.251 km
Semi-major axis
7,833.959 km
Eccentricity
0.06505
Inclination
67.9393°
RAAN
93.3671°
Arg. of periapsis
244.7465°
True anomaly
218.75589°
Mean anomaly
223.6044°
Eccentric anomaly
221.1519°
Mean motion
3.13019 °/min
Orbital period
115.01 mins
BSTAR
0.00027411
Loading maneuver chart data...
Computing Atmospheric mass density...

Documentation

Showing up to 5 results
|